Location: Bay Shore Mobile Home Park
(38.5762°N, 75.0841°W)
Time: 09:01:50
(UTC+00:00)

SJ-12 - Pass Details

Date: 15 November 2025
Orbit: 517 x 528 km, 97.8° (Epoch: 05 December)

Event Time Altitude Azimuth Distance (km) Brightness Sun altitude
Rises 22:23:45 0° 156° (SSE) 2,645 7.2 -7.6°
Reaches altitude 10° 22:25:53 10° 152° (SSE) 1,758 6.3 -8.0°
Maximum altitude 22:29:35 54° 75° (ENE) 641 3.8 -8.6°
Drops below altitude 10° 22:33:18 10° 357° (N) 1,763 6.3 -9.3°
Sets 22:35:25 0° 353° (N) 2,654 7.2 -9.7°
